Zurück zum Katalog

STARLINK-4506

AktivKommunikationVLEO
NORAD 53554·PAYLOAD·🇺🇸 United States

Gestartet Aug 19, 2022 von Cape Canaveral Space Force Station

Loading…

Nächste Überflüge (nächste 24 Stunden)

TLE

AktuellSource: CelesTrak SupGP

Epoche: Sep 15, 2026, 02:50 UTC

1 53554C 22101AD  26258.11854167  .00038943  00000+0  24402-2 0  2582
2 53554  53.1589 293.1233 0001249  89.4659 335.5939 15.08844825    18

Verfolge STARLINK-4506 in Echtzeit mit AllMySat

Download on the App Store